Weather History for KCWV - November, 2012

Change the Weather History Date:

Wednesday, November 14, 2012

  Actual Average (KSAV) Record (KSAV)
Temperature  
Mean Temperature 53 °F 60 °F  
Max Temperature 55 °F 71 °F 83 °F (1993)
Min Temperature 51 °F 48 °F 28 °F (1968)
Degree Days  
Heating Degree Days 12 7  
Month to date heating degree days 73  
Since 1 July heating degree days 130  
Cooling Degree Days 0 1  
Month to date cooling degree days 24  
Year to date cooling degree days 2436  
Growing Degree Days 3 (Base 50)    
Moisture  
Dew Point 48 °F    
Average Humidity 84    
Maximum Humidity 100    
Minimum Humidity 72    
Precipitation  
Precipitation 0.00 in 0.07 in 1.62 in (1908)
Month to date precipitation 1.09  
Year to date precipitation 43.73  
Sea Level Pressure  
Sea Level Pressure 30.29 in    
Wind  
Wind Speed 7 mph (NE)    
Max Wind Speed 13 mph    
Max Gust Speed 16 mph    
Visibility 9 miles    
Events      
T = Trace of Precipitation, MM = Missing Value Source: NWS Daily Summary

Daily Weather History Graph

Daily Weather History Graph

Search for Another Location

Airport or City:

Trip Planner

Search our weather history database for the weather conditions in past years. The results will help you decide how hot, cold, wet, or windy it might be!

Date:

Astronomy

Nov. 14, 2012 Rise Set
Actual Time 6:56 AM EST 5:27 PM EST
Civil Twilight 6:30 AM EST 5:53 PM EST
Nautical Twilight 6:00 AM EST 6:23 PM EST
Astronomical Twilight 5:31 AM EST 6:52 PM EST
Moon 7:40 AM EST (11/14) 6:18 PM EST (11/14)
Length of Visible Light 11h 23m
Length of Day
10h 31m
New Moon, 1% of the Moon is Illuminated
Nov 14
New Moon
Nov 20
First Quarter
Nov 28
Full
Dec 6
Last Quarter
Dec 13
New

Hourly Weather History & Observations

Time (EST) Temp. Dew Point Humidity Pressure Visibility Wind Dir Wind Speed Gust Speed Precip Events Conditions
12:15 AM 53.6 °F 50.0 °F 88% 30.28 in 10.0 mi NE 6.9 mph - N/A   Overcast
12:35 AM 53.6 °F 50.0 °F 88% 30.28 in 10.0 mi NE 6.9 mph - N/A   Overcast
12:55 AM 53.6 °F 50.0 °F 88% 30.27 in 10.0 mi NE 8.1 mph - N/A   Overcast
1:15 AM 53.6 °F 50.0 °F 88% 30.27 in 10.0 mi NE 5.8 mph - N/A   Overcast
1:35 AM 53.6 °F 50.0 °F 88% 30.26 in 10.0 mi NE 6.9 mph - N/A   Overcast
1:55 AM 53.6 °F 50.0 °F 88% 30.26 in 10.0 mi NE 9.2 mph - N/A   Overcast
2:15 AM 53.6 °F 50.0 °F 88% 30.26 in 10.0 mi NE 8.1 mph - N/A   Overcast
2:35 AM 53.6 °F 51.8 °F 94% 30.26 in 10.0 mi NE 9.2 mph - N/A   Overcast
2:55 AM 53.6 °F 51.8 °F 94% 30.26 in 10.0 mi ENE 8.1 mph - N/A   Overcast
3:15 AM 53.6 °F 51.8 °F 94% 30.26 in 10.0 mi NE 5.8 mph - N/A   Overcast
3:35 AM 53.6 °F 51.8 °F 94% 30.27 in 10.0 mi NE 6.9 mph - N/A   Overcast
3:55 AM 53.6 °F 51.8 °F 94% 30.28 in 7.0 mi NNE 6.9 mph - N/A   Overcast
4:15 AM 53.6 °F 51.8 °F 94% 30.28 in 5.0 mi NE 6.9 mph - N/A   Overcast
4:35 AM 51.8 °F 51.8 °F 100% 30.28 in 4.0 mi NE 8.1 mph - N/A   Overcast
4:55 AM 51.8 °F 51.8 °F 100% 30.28 in 7.0 mi NE 8.1 mph - N/A   Overcast
5:15 AM 51.8 °F 51.8 °F 100% 30.29 in 7.0 mi NE 5.8 mph - N/A   Overcast
5:35 AM 51.8 °F 51.8 °F 100% 30.29 in 5.0 mi ENE 6.9 mph - N/A   Overcast
5:55 AM 51.8 °F 51.8 °F 100% 30.29 in 10.0 mi NE 8.1 mph - N/A   Overcast
6:15 AM 51.8 °F 51.8 °F 100% 30.29 in 7.0 mi NNE 3.5 mph - N/A   Light Drizzle
6:35 AM 51.8 °F 51.8 °F 100% 30.30 in 4.0 mi ENE 5.8 mph - N/A   Light Drizzle
6:55 AM 51.8 °F 51.8 °F 100% 30.30 in 10.0 mi NE 9.2 mph - N/A   Overcast
7:15 AM 51.8 °F 50.0 °F 94% 30.31 in 10.0 mi ENE 9.2 mph - N/A   Overcast
7:35 AM 51.8 °F 50.0 °F 94% 30.30 in 7.0 mi NE 8.1 mph - N/A   Overcast
7:55 AM 51.8 °F 50.0 °F 94% 30.31 in 10.0 mi NE 9.2 mph - N/A   Overcast
8:15 AM 51.8 °F 50.0 °F 94% 30.33 in 10.0 mi NE 9.2 mph - N/A   Overcast
8:35 AM 51.8 °F 50.0 °F 94% 30.34 in 10.0 mi NE 8.1 mph - N/A   Overcast
9:15 AM 51.8 °F 48.2 °F 88% 30.34 in 10.0 mi ENE 9.2 mph 16.1 mph N/A   Overcast
9:35 AM 51.8 °F 46.4 °F 82% 30.35 in 10.0 mi ENE 12.7 mph - N/A   Overcast
9:55 AM 51.8 °F 46.4 °F 82% 30.35 in 10.0 mi ENE 11.5 mph - N/A   Overcast
10:15 AM 53.6 °F 46.4 °F 77% 30.35 in 10.0 mi NNE 5.8 mph - N/A   Overcast
10:35 AM 53.6 °F 46.4 °F 77% 30.35 in 10.0 mi NE 8.1 mph - N/A   Overcast
10:55 AM 53.6 °F 46.4 °F 77% 30.35 in 10.0 mi NE 5.8 mph - N/A   Overcast
11:15 AM 53.6 °F 46.4 °F 77% 30.35 in 10.0 mi ENE 6.9 mph - N/A   Overcast
11:35 AM 53.6 °F 46.4 °F 77% 30.34 in 10.0 mi North 8.1 mph - N/A   Overcast
12:15 PM 53.6 °F 46.4 °F 77% 30.32 in 10.0 mi NNE 5.8 mph - N/A   Overcast
12:35 PM 53.6 °F 46.4 °F 77% 30.32 in 10.0 mi ENE 8.1 mph - N/A   Overcast
12:55 PM 53.6 °F 46.4 °F 77% 30.31 in 10.0 mi NNE 8.1 mph - N/A   Overcast
1:15 PM 53.6 °F 46.4 °F 77% 30.31 in 10.0 mi ENE 9.2 mph - N/A   Overcast
1:35 PM 53.6 °F 46.4 °F 77% 30.31 in 10.0 mi NNE 4.6 mph 9.2 mph N/A   Overcast
1:55 PM 53.6 °F 46.4 °F 77% 30.30 in 10.0 mi NE 8.1 mph - N/A   Overcast
2:15 PM 53.6 °F 46.4 °F 77% 30.29 in 10.0 mi NE 6.9 mph - N/A   Overcast
2:35 PM 55.4 °F 46.4 °F 72% 30.28 in 10.0 mi NE 6.9 mph - N/A   Overcast
2:55 PM 55.4 °F 46.4 °F 72% 30.27 in 10.0 mi NE 8.1 mph - N/A   Overcast
3:15 PM 55.4 °F 48.2 °F 77% 30.27 in 10.0 mi ENE 6.9 mph - N/A   Overcast
3:35 PM 55.4 °F 48.2 °F 77% 30.27 in 10.0 mi NE 6.9 mph - N/A   Overcast
3:55 PM 55.4 °F 48.2 °F 77% 30.27 in 10.0 mi Calm Calm - N/A   Overcast
4:15 PM 55.4 °F 48.2 °F 77% 30.26 in 10.0 mi NNE 5.8 mph - N/A   Overcast
4:35 PM 55.4 °F 48.2 °F 77% 30.26 in 10.0 mi NE 3.5 mph - N/A   Overcast
4:55 PM 55.4 °F 48.2 °F 77% 30.25 in 10.0 mi North 6.9 mph - N/A   Overcast
5:35 PM 55.4 °F 48.2 °F 77% 30.26 in 10.0 mi NE 5.8 mph - N/A   Overcast
5:55 PM 53.6 °F 46.4 °F 77% 30.28 in 10.0 mi NNE 6.9 mph - N/A   Overcast
6:35 PM 53.6 °F 48.2 °F 82% 30.28 in 10.0 mi ENE 6.9 mph - N/A   Overcast
6:55 PM 53.6 °F 46.4 °F 77% 30.28 in 10.0 mi NE 8.1 mph - N/A   Overcast
7:15 PM 53.6 °F 46.4 °F 77% 30.28 in 10.0 mi NNE 6.9 mph - N/A   Overcast
7:35 PM 53.6 °F 46.4 °F 77% 30.28 in 10.0 mi NNE 4.6 mph - N/A   Overcast
7:55 PM 53.6 °F 46.4 °F 77% 30.28 in 10.0 mi ENE 6.9 mph - N/A   Overcast
8:15 PM 51.8 °F 46.4 °F 82% 30.28 in 10.0 mi NNE 8.1 mph - N/A   Overcast
8:35 PM 51.8 °F 46.4 °F 82% 30.29 in 10.0 mi NE 8.1 mph - N/A   Overcast
9:15 PM 51.8 °F 46.4 °F 82% 30.28 in 10.0 mi NE 8.1 mph - N/A   Overcast
9:35 PM 51.8 °F 46.4 °F 82% 30.28 in 10.0 mi NE 8.1 mph - N/A   Overcast
9:55 PM 51.8 °F 46.4 °F 82% 30.28 in 10.0 mi NE 4.6 mph - N/A   Overcast
10:15 PM 51.8 °F 44.6 °F 76% 30.27 in 10.0 mi NE 6.9 mph - N/A   Overcast
10:35 PM 51.8 °F 44.6 °F 76% 30.26 in 10.0 mi ENE 8.1 mph - N/A   Overcast
10:55 PM 51.8 °F 44.6 °F 76% 30.24 in 10.0 mi East 9.2 mph - N/A   Overcast
11:15 PM 51.8 °F 44.6 °F 76% 30.26 in 10.0 mi North 3.5 mph - N/A   Overcast
11:35 PM 51.8 °F 44.6 °F 76% 30.26 in 10.0 mi NE 3.5 mph - N/A   Overcast